Terug naar catalogus

STARLINK-5727

ActiefCommunicatieVLEO
NORAD 55587·PAYLOAD·🇺🇸 United States

Gelanceerd Feb 12, 2023 vanaf Cape Canaveral Space Force Station

Loading…

Volgende Passages (komende 24 uur)

TLE

VersSource: CelesTrak SupGP

Epoch: Sep 15, 2026, 02:48 UTC

1 55587C 23020U   26258.11715278 -.00010799  00000+0 -39158-3 0  2586
2 55587  43.0044  15.4723 0002073 267.8597  23.5714 15.27545581    11

Volg STARLINK-5727 in realtime met AllMySat

Download on the App Store